Location: Bourg-d�Oueil
(42.8588°N, 0.4991°E)
Time: 15:21:00
(UTC+00:00)

Meteor 2-5 Rocket - Pass Details

Date: 16 June 2021
Orbit: 833 x 911 km, 81.2° (Epoch: 01 August)

Event Time Altitude Azimuth Distance (km) Brightness Sun altitude
Exits shadow 22:24:27 32° 194° (SSW) 1,393 4.4 -20.3°
Maximum altitude 22:27:06 83° 279° (W) 848 3.7 -20.5°
Drops below altitude 10° 22:32:43 10° 9° (N) 2,475 7.0 -20.9°
Sets 22:35:10 0° 10° (N) 3,424 7.9 -21.0°
